Location: Gerlach
(40.6516°N, 119.3568°W)
Time: 06:17:18
(UTC-07:00)

ISS - Visible Passes

Search period start: 16 August 2022 00:00
Search period end: 26 August 2022 00:00
Orbit: 412 x 420 km, 51.6° (Epoch: 16 August)

Date Brightness Start Highest point End Pass type
(mag) Time Alt. Az. Time Alt. Az. Time Alt. Az.
23 Aug -2.1 04:59:54 15° S 05:02:04 28° SE 05:04:59 10° ENE visible
24 Aug -1.4 04:13:28 16° SE 04:13:35 16° SE 04:15:44 10° E visible
24 Aug -3.5 05:46:43 10° WSW 05:50:00 57° NNW 05:53:19 10° NE visible
25 Aug -3.8 04:59:51 30° SW 05:01:20 83° SE 05:04:41 10° NE visible
